| time (UTC) | temp F | wind direction | speed knots | gust knots | rain 1hr in | rain 24hr in | rain mn in | humidity % | barometer mb |
| 20260504193355 | 75 | 0 | 4.3 | 0.0 | 0.00 | 0.00 | 0.00 | 82 | 1010.0 |
| 20260504190354 | 75 | 0 | 4.3 | 0.0 | 0.00 | 0.00 | 0.00 | 81 | 1011.0 |
| 20260504183353 | 75 | 0 | 4.3 | 0.0 | 0.00 | 0.00 | 0.00 | 82 | 1010.0 |
| 20260504180352 | 74 | 0 | 4.3 | 0.0 | 0.00 | 0.00 | 0.00 | 86 | 1012.0 |
| 20260504173351 | 74 | 0 | 4.3 | 0.0 | 0.00 | 0.00 | 0.00 | 86 | 1012.0 |
| 20260504170350 | 73 | 200 | 3.5 | 0.0 | 0.00 | 0.00 | 0.00 | 88 | 1013.0 |
| 20260504160347 | 71 | 230 | 2.6 | 0.0 | 0.00 | 0.00 | 0.00 | 94 | 1015.0 |
| 20260504150345 | 64 | 10 | 2.6 | 0.0 | 0.00 | 0.00 | 0.00 | 94 | 1016.0 |
| 20260504140343 | 65 | 10 | 2.6 | 0.0 | 0.00 | 0.00 | 0.00 | 94 | 1016.0 |
| 20260504130341 | 67 | 10 | 2.6 | 0.0 | 0.00 | 0.00 | 0.00 | 94 | 1016.0 |
| 20260504110337 | 59 | 0 | 2.6 | 0.0 | 0.00 | 0.00 | 0.00 | 91 | 1015.0 |
| 20260504100335 | 60 | 0 | 2.6 | 0.0 | 0.00 | 0.00 | 0.00 | 91 | 1015.0 |
| 20260504080330 | 61 | 0 | 2.6 | 0.0 | 0.00 | 0.00 | 0.00 | 91 | 1015.0 |
| 20260504070328 | 62 | 0 | 2.6 | 0.0 | 0.00 | 0.00 | 0.00 | 91 | 1015.0 |
| 20260504050324 | 64 | 0 | 2.6 | 0.0 | 0.00 | 0.00 | 0.00 | 91 | 1017.0 |
| 20260504043323 | 64 | 0 | 2.6 | 0.0 | 0.00 | 0.00 | 0.00 | 91 | 1016.0 |
| 20260504040322 | 65 | 0 | 2.6 | 0.0 | 0.00 | 0.00 | 0.00 | 91 | 1017.0 |
| 20260504033321 | 65 | 0 | 2.6 | 0.0 | 0.00 | 0.00 | 0.00 | 91 | 1016.0 |
| 20260504030320 | 66 | 0 | 2.6 | 0.0 | 0.00 | 0.00 | 0.00 | 91 | 1016.0 |
| 20260504023319 | 66 | 0 | 2.6 | 0.0 | 0.00 | 0.00 | 0.00 | 91 | 1016.0 |
| 20260504020318 | 67 | 0 | 2.6 | 0.0 | 0.00 | 0.00 | 0.00 | 91 | 1015.0 |
| 20260504013317 | 67 | 0 | 2.6 | 0.0 | 0.00 | 0.00 | 0.00 | 91 | 1015.0 |
| 20260504010316 | 68 | 0 | 2.6 | 0.0 | 0.00 | 0.00 | 0.00 | 91 | 1014.0 |
| 20260504003315 | 68 | 0 | 2.6 | 0.0 | 0.00 | 0.00 | 0.00 | 91 | 1013.0 |
| 20260504000314 | 69 | 0 | 2.6 | 0.0 | 0.00 | 0.00 | 0.00 | 91 | 1012.0 |
| 20260503233313 | 69 | 0 | 2.6 | 0.0 | 0.00 | 0.00 | 0.00 | 91 | 1012.0 |
| 20260503230312 | 70 | 0 | 2.6 | 0.0 | 0.00 | 0.00 | 0.00 | 91 | 1010.0 |
| 20260503223311 | 70 | 0 | 2.6 | 0.0 | 0.00 | 0.00 | 0.00 | 91 | 1010.0 |
| 20260503220310 | 71 | 0 | 2.6 | 0.0 | 0.00 | 0.00 | 0.00 | 91 | 1010.0 |
| 20260503213308 | 71 | 0 | 2.6 | 0.0 | 0.00 | 0.00 | 0.00 | 91 | 1010.0 |
| 20260503210307 | 72 | 0 | 2.6 | 0.0 | 0.00 | 0.00 | 0.00 | 91 | 1010.0 |
| 20260503203306 | 72 | 0 | 2.6 | 0.0 | 0.00 | 0.00 | 0.00 | 91 | 1010.0 |
| 20260503200306 | 73 | 0 | 2.6 | 0.0 | 0.00 | 0.00 | 0.00 | 91 | 1010.0 |